Location: Limerick
(52.6650°N, 8.6230°W)
Time: 19:45:48
(UTC+01:00)

ISS - Pass Details

Date: 25 July 2017
Orbit: 400 x 408 km, 51.6° (Epoch: 21 July)

Event Time Altitude Azimuth Distance (km) Brightness Sun altitude
Rises 23:46:42 0° 250° (WSW) 2,308 0.1 -13.7°
Reaches altitude 10° 23:48:48 10° 246° (WSW) 1,451 -1.0 -13.9°
Maximum altitude 23:52:00 59° 167° (SSE) 469 -3.9 -14.1°
Drops below altitude 10° 23:55:13 10° 86° (E) 1,455 -1.2 -14.3°
Enters shadow 23:56:43 - 84° (E) 2,072 -0.4 -14.4°
